Date String (YYYY-MM-DD hh:mm:ss) UTC,Instrument flags,absolute air pressure of the measurement (hPa),sample flow rate (lpm),inlet stack bypass flow (lpm),air temperature of the measurement (°C),ambient temperature measured by the external sensor (°C),aerosol sample conditioner tube jacket temperature (°C),OPC LED temperature (°C),internal box temperature (°C),relative humidity of the measurement (%),span deviation,mass concentration of particles derived from Lorenz-Mie calculation of OPC scattering (μg/m³),mass concentration of particles derived from Lorenz-Mie calculation of OPC scattering (μg/m³),mass concentration of particles derived from Lorenz-Mie calculation of OPC scattering (μg/m³)
DateTimeUTC,F1_M11,P_M11,Q1_M11,Q2_M11,T1_M11,T2_M11,T3_M11,T4_M11,T5_M11,U1_M11,ZSPAN_M11,X0_M11,X2_M11,X1_M11
2023-06-21 02:00:00,SystemResetWarning,0829.3,5.00,000.00,029.4,027.4,000.0,037.8,031.0,21.4,0000.0,0023.07,0005.62,0003.80
2023-06-21 02:01:00,SystemResetWarning,0829.4,5.01,000.00,029.4,027.7,000.0,037.9,031.1,21.6,0000.0,0023.55,0005.67,0003.79
2023-06-21 02:02:00,SystemResetWarning,0829.4,5.00,000.00,029.5,028.0,000.0,037.9,031.2,21.7,0000.0,0023.83,0005.71,0003.79
2023-06-21 02:03:00,SystemResetWarning,0829.3,5.00,000.00,029.5,028.1,000.0,037.9,031.3,21.7,0000.0,0024.28,0005.67,0003.79
2023-06-21 02:04:00,SystemResetWarning,0829.3,5.00,000.00,029.5,026.9,000.0,037.9,031.2,21.9,0000.0,0024.12,0005.61,0003.80
2023-06-21 02:05:00,SystemResetWarning,0829.4,5.00,000.00,029.5,024.8,000.0,037.8,031.1,22.7,0000.0,0024.06,0005.57,0003.80
2023-06-21 02:06:00,SystemResetWarning,0829.3,5.01,000.00,029.5,024.3,000.0,037.8,031.0,22.4,0000.0,0024.17,0005.50,0003.79
2023-06-21 02:07:00,SystemResetWarning,0829.4,5.01,000.00,029.4,024.6,000.0,037.8,030.7,22.0,0000.0,0022.69,0005.48,0003.78
2023-06-21 02:08:00,SystemResetWarning,0829.3,4.99,000.00,029.3,025.1,000.0,037.8,030.6,22.0,0000.0,0023.27,0005.52,0003.78
2023-06-21 02:09:00,SystemResetWarning,0829.4,5.01,000.00,029.2,025.7,000.0,037.8,030.7,21.9,0000.0,0021.59,0005.50,0003.78
2023-06-21 02:10:00,SystemResetWarning,0829.3,4.99,000.00,029.3,026.2,000.0,037.8,030.8,21.9,0000.0,0021.67,0005.54,0003.77
2023-06-21 02:11:00,SystemResetWarning,0829.3,4.99,000.00,029.3,026.7,000.0,037.8,030.9,22.4,0000.0,0022.12,0005.53,0003.78
2023-06-21 02:12:00,SystemResetWarning,0829.4,5.02,000.00,029.3,027.1,000.0,037.8,030.9,22.8,0000.0,0021.28,0005.46,0003.77
2023-06-21 02:13:00,SystemResetWarning,0829.4,5.00,000.00,029.3,027.4,000.0,037.8,031.0,22.3,0000.0,0021.32,0005.45,0003.78
2023-06-21 02:14:00,SystemResetWarning,0829.4,4.99,000.00,029.4,027.7,000.0,037.8,031.1,22.3,0000.0,0022.02,0005.51,0003.79
2023-06-21 02:15:00,SystemResetWarning,0829.4,5.00,000.00,029.4,027.9,000.0,037.9,031.2,22.2,0000.0,0021.97,0005.55,0003.79
2023-06-21 02:16:00,SystemResetWarning,0829.5,5.00,000.00,029.5,028.2,000.0,037.9,031.2,22.4,0000.0,0022.79,0005.56,0003.79
2023-06-21 02:17:00,SystemResetWarning,0829.5,4.99,000.00,029.5,027.5,000.0,037.9,031.2,22.1,0000.0,0023.22,0005.62,0003.80
2023-06-21 02:18:00,SystemResetWarning,0829.5,5.00,000.00,029.5,025.7,000.0,037.9,031.1,22.0,0000.0,0024.53,0005.62,0003.81
2023-06-21 02:19:00,SystemResetWarning,0829.5,5.00,000.00,029.5,025.3,000.0,037.8,031.1,22.0,0000.0,0023.80,0005.62,0003.81
2023-06-21 02:20:00,SystemResetWarning,0829.5,5.01,000.00,029.4,025.6,000.0,037.8,030.8,22.1,0000.0,0025.04,0005.59,0003.81
2023-06-21 02:21:00,SystemResetWarning,0829.5,5.00,000.00,029.4,026.0,000.0,037.8,030.8,21.7,0000.0,0024.88,0005.57,0003.82
2023-06-21 02:22:00,SystemResetWarning,0829.5,4.99,000.00,029.4,026.5,000.0,037.9,030.9,21.4,0000.0,0024.41,0005.58,0003.83
2023-06-21 02:23:00,SystemResetWarning,0829.5,5.00,000.00,029.4,026.9,000.0,037.9,031.0,21.5,0000.0,0024.88,0005.65,0003.85
2023-06-21 02:24:00,SystemResetWarning,0829.6,5.00,000.00,029.4,027.2,000.0,037.9,031.1,22.0,0000.0,0024.31,0005.64,0003.86
2023-06-21 02:25:00,SystemResetWarning,0829.6,5.00,000.00,029.5,027.6,000.0,037.9,031.1,23.2,0000.0,0023.39,0005.64,0003.86
2023-06-21 02:26:00,SystemResetWarning,0829.7,5.00,000.00,029.5,027.8,000.0,037.9,031.2,22.8,0000.0,0023.80,0005.62,0003.86
2023-06-21 02:27:00,SystemResetWarning,0829.7,4.99,000.00,029.6,028.0,000.0,038.0,031.3,22.8,0000.0,0023.10,0005.57,0003.85
2023-06-21 02:28:00,SystemResetWarning,0829.7,5.00,000.00,029.6,026.7,000.0,037.9,031.3,22.6,0000.0,0022.55,0005.55,0003.84
2023-06-21 02:29:00,SystemResetWarning,0829.6,5.01,000.00,029.6,025.3,000.0,037.9,031.3,22.4,0000.0,0021.81,0005.57,0003.85
2023-06-21 02:30:00,SystemResetWarning,0829.7,5.00,000.00,029.5,025.3,000.0,037.9,031.1,22.3,0000.0,0021.75,0005.56,0003.85
2023-06-21 02:31:00,SystemResetWarning,0829.7,5.00,000.00,029.4,025.7,000.0,037.9,030.8,22.2,0000.0,0020.45,0005.58,0003.87
2023-06-21 02:32:00,SystemResetWarning,0829.7,5.00,000.00,029.4,026.1,000.0,037.9,030.8,22.2,0000.0,0020.38,0005.53,0003.86
2023-06-21 02:33:00,SystemResetWarning,0829.7,5.00,000.00,029.4,026.6,000.0,037.9,030.9,22.4,0000.0,0019.70,0005.52,0003.86
2023-06-21 02:34:00,SystemResetWarning,0829.7,4.99,000.00,029.4,027.0,000.0,037.9,031.0,22.4,0000.0,0018.95,0005.46,0003.86
2023-06-21 02:35:00,SystemResetWarning,0829.7,5.00,000.00,029.5,027.3,000.0,037.9,031.1,22.1,0000.0,0018.07,0005.42,0003.85
2023-06-21 02:36:00,SystemResetWarning,0829.7,5.00,000.00,029.5,027.6,000.0,038.0,031.1,22.1,0000.0,0017.40,0005.35,0003.84
2023-06-21 02:37:00,SystemResetWarning,0829.7,5.01,000.00,029.5,027.9,000.0,038.0,031.2,22.6,0000.0,0016.93,0005.34,0003.83
2023-06-21 02:38:00,SystemResetWarning,0829.7,4.99,000.00,029.6,027.8,000.0,038.0,031.3,22.2,0000.0,0015.94,0005.36,0003.83
2023-06-21 02:39:00,SystemResetWarning,0829.7,4.99,000.00,029.6,026.0,000.0,037.9,031.2,22.2,0000.0,0016.38,0005.36,0003.82
2023-06-21 02:40:00,SystemResetWarning,0829.7,5.01,000.00,029.6,025.2,000.0,037.9,031.2,22.3,0000.0,0016.00,0005.33,0003.83
2023-06-21 02:41:00,SystemResetWarning,0829.7,5.01,000.00,029.5,025.4,000.0,037.9,030.9,22.3,0000.0,0015.21,0005.29,0003.83
2023-06-21 02:42:00,SystemResetWarning,0829.7,4.99,000.00,029.4,025.8,000.0,037.9,030.8,22.4,0000.0,0015.84,0005.31,0003.84
2023-06-21 02:43:00,SystemResetWarning,0829.7,5.00,000.00,029.4,026.2,000.0,037.9,030.8,22.5,0000.0,0016.36,0005.32,0003.84
2023-06-21 02:44:00,SystemResetWarning,0829.7,5.01,000.00,029.4,026.7,000.0,037.9,030.9,22.8,0000.0,0015.95,0005.29,0003.85
2023-06-21 02:45:00,SystemResetWarning,0829.8,5.00,000.00,029.4,027.1,000.0,038.0,031.0,22.7,0000.0,0016.05,0005.31,0003.86
2023-06-21 02:46:00,SystemResetWarning,0829.8,5.00,000.00,029.5,027.4,000.0,038.0,031.1,22.7,0000.0,0016.60,0005.33,0003.87
2023-06-21 02:47:00,SystemResetWarning,0829.8,4.99,000.00,029.5,027.7,000.0,038.0,031.1,22.7,0000.0,0017.20,0005.35,0003.88
2023-06-21 02:48:00,SystemResetWarning,0829.8,5.00,000.00,029.6,027.9,000.0,038.0,031.2,22.7,0000.0,0016.44,0005.33,0003.89
2023-06-21 02:49:00,SystemResetWarning,0829.8,4.99,000.00,029.6,027.4,000.0,038.0,031.2,22.7,0000.0,0017.21,0005.39,0003.91
2023-06-21 02:50:00,SystemResetWarning,0829.8,5.01,000.00,029.6,025.5,000.0,037.9,031.2,22.9,0000.0,0017.36,0005.47,0003.92
2023-06-21 02:51:00,SystemResetWarning,0829.8,5.00,000.00,029.6,025.2,000.0,037.9,031.1,23.0,0000.0,0017.49,0005.54,0003.94
2023-06-21 02:52:00,SystemResetWarning,0829.8,5.01,000.00,029.5,025.5,000.0,037.9,030.9,23.1,0000.0,0018.80,0005.64,0003.96
2023-06-21 02:53:00,SystemResetWarning,0829.9,5.00,000.00,029.4,025.9,000.0,037.9,030.8,23.3,0000.0,0020.80,0005.68,0003.97
2023-06-21 02:54:00,SystemResetWarning,0829.9,5.01,000.00,029.4,026.4,000.0,037.9,030.8,23.4,0000.0,0021.61,0005.71,0003.97
2023-06-21 02:55:00,SystemResetWarning,0829.9,5.00,000.00,029.4,026.8,000.0,038.0,030.9,23.2,0000.0,0021.33,0005.78,0003.98
2023-06-21 02:56:00,SystemResetWarning,0830.0,5.00,000.00,029.5,027.2,000.0,038.0,031.0,23.3,0000.0,0021.45,0005.78,0003.97
2023-06-21 02:57:00,SystemResetWarning,0830.0,4.99,000.00,029.5,027.5,000.0,038.0,031.1,23.4,0000.0,0020.96,0005.76,0003.98
2023-06-21 02:58:00,SystemResetWarning,0830.0,5.00,000.00,029.5,027.7,000.0,038.0,031.1,23.2,0000.0,0021.07,0005.80,0003.99
2023-06-21 02:59:00,SystemResetWarning,0830.0,5.01,000.00,029.6,027.9,000.0,038.0,031.2,23.1,0000.0,0022.53,0005.85,0003.99
